Regional Weather Roundup
Issued by NWS

Home | Current Version | Previous Version | Graphics & Text | Print | Product List | Glossary On
Versions: 1 2 3 4 5 6 7 8 9 10 11 12 13 14 15 16 17 18 19 20 21 22 23 24 25 26 27 28 29 30 31 32 33 34 35 36 37 38 39 40 41 42 43 44 45 46 47 48 49 50
000
ASUS45 KABQ 280801
RWRNM
NEW MEXICO REGIONAL WEATHER ROUNDUP
NATIONAL WEATHER SERVICE ALBUQUERQUE NM
200 AM MDT TUE JUL 28 2015

NOTE: "FAIR" MEANS FEW OR NO CLOUDS BELOW 12,000 FEET AGL WITH NO
       SIGNIFICANT WEATHER OR OBSTRUCTIONS TO VISION.

      THIS PRODUCT IS RELEASED AS TWO VERSIONS.  ONE VERSION NEAR
      THE TOP OF THE HOUR CONTAINING PRELIMINARY DATA FROM ALBUQUERQUE
      AND OTHER STATIONS.  A FINAL VERSION WITH ADDITIONAL DATA IS
      ISSUED ABOUT 10 MINUTES AFTER THE HOUR.

NMZ501-503-504-510>518-280900-
NORTHWEST PLATEAU/NORTHCENTRAL MOUNTAINS

CITY           SKY/WX    TMP DP  RH WIND       PRES   REMARKS
FARMINGTON     CLEAR     59  28  30 N6        30.07R
SANTA FE       MOCLDY    67  51  56 CALM      30.16S
TAOS           PTCLDY    57  41  54 N3        30.22S
ANGEL FIRE     FAIR      46  44  90 CALM      30.33S

$$
NMZ402-403-502-505>509-280900-
WESTCENTRAL MOUNTAINS/SOUTHWEST MOUNTAINS

CITY           SKY/WX    TMP DP  RH WIND       PRES   REMARKS
GALLUP         PTCLDY    58  36  43 NE6       30.20R
GRANTS         PTCLDY    60  52  74 NW5       30.21S
SILVER CITY      N/A     72  48  43 N12       30.13S

$$
NMZ407-409-411-412-280900-
SOUTHERN DESERTS

CITY           SKY/WX    TMP DP  RH WIND       PRES   REMARKS
DEMING         MOCLDY    78  57  48 S7        30.05R
ALAMOGORDO     MOCLDY    77  54  44 CALM      30.00F
T OR C         MOCLDY    77  55  46 NW7       30.04F

$$
NMZ519>523-280900-
CENTRAL VALLEYS/CENTRAL HIGHLANDS

CITY           SKY/WX    TMP DP  RH WIND       PRES   REMARKS
ALBUQUERQUE    MOCLDY    79  49  34 SE8       30.08F
DOUBLE EAGLE   CLOUDY    72  53  50 S3        30.12S
MORIARTY ARPT    N/A     66  54  65 S3        30.18S
CLINES CORNERS CLOUDY    66  52  60 S9        30.22S
BELEN          PTSUNNY   74  52  44 S6        30.07S
SOCORRO        NOT AVBL

$$
NMZ524>526-539-540-280900-
SOUTHCENTRAL MOUNTAINS

CITY           SKY/WX    TMP DP  RH WIND       PRES   REMARKS
RUIDOSO          N/A    N/A N/A N/A MISG        N/A

$$
NMZ527>531-280900-
NORTHEAST HIGHLANDS/NORTHEAST PLAINS

CITY           SKY/WX    TMP DP  RH WIND       PRES   REMARKS
LAS VEGAS      MOCLDY    62  51  67 S14       30.21S
RATON          PTCLDY    61  52  72 W5        30.13R
CLAYTON        CLEAR     71  56  58 SW8       30.02F

$$
NMZ532>537-280900-
EASTCENTRAL PLAINS

CITY           SKY/WX    TMP DP  RH WIND       PRES   REMARKS
TUCUMCARI      CLOUDY    84  49  29 SW14G24   29.92F
CANNON AFB     PTCLDY    71  57  59 SW9       30.04F
CLOVIS AIRPORT PTCLDY    70  61  73 S8        30.04F

$$
NMZ028-029-538-280900-
SOUTHEAST PLAINS

CITY           SKY/WX    TMP DP  RH WIND       PRES   REMARKS
ROSWELL        PTCLDY    81  56  42 E5        29.99S
ARTESIA        PTCLDY    79  59  50 SE10      29.97S
CARLSBAD       PTCLDY    81  60  48 SE9       29.94F
HOBBS          CLEAR     77  55  47 S9        30.01S


$$


USA.gov is the U.S. government's official web portal to all federal, state and local government web resources and services.